Location: Boiro
(42.6475°N, 8.8834°W)
Time: 01:38:22
(UTC+01:00)

SR - All Passes

Search period start: 30 November 2021 00:00
Search period end: 10 December 2021 00:00
Orbit: 583 x 871 km, 66.7° (Epoch: 29 November)

Date Brightness Start Highest point End Pass type
(mag) Time Alt. Az. Time Alt. Az. Time Alt. Az.
30 Nov - 00:34:05 10° SE 00:36:23 14° ESE 00:38:37 10° ENE night (unlit)
30 Nov - 02:13:17 10° SW 02:17:55 65° WNW 02:22:17 10° NNE night (unlit)
30 Nov - 04:00:02 10° NW 04:00:44 10° NW 04:01:25 10° NNW night (unlit)
30 Nov - 09:12:15 10° N 09:14:37 14° NE 09:17:01 10° ENE daylight
30 Nov - 10:52:48 10° NNW 10:57:08 80° WSW 11:01:40 10° SSE daylight
01 Dec - 01:23:29 10° SSW 01:28:05 58° ESE 01:32:24 10° NE night (unlit)
01 Dec - 03:07:13 10° W 03:10:24 18° NW 03:13:28 10° N night (unlit)
01 Dec - 10:03:04 10° NNW 10:07:14 47° NE 10:11:36 10° SE daylight
01 Dec - 11:45:56 10° WNW 11:48:54 18° WSW 11:51:59 10° SSW daylight
02 Dec - 00:34:28 10° SSE 00:38:23 27° ESE 00:42:06 10° NE night (unlit)
02 Dec - 02:16:04 10° WSW 02:20:15 34° NW 02:24:15 10° NNE night (unlit)
02 Dec - 09:13:39 10° N 09:17:11 24° NE 09:20:50 10° ESE daylight
02 Dec - 10:55:14 10° NW 10:59:16 38° WSW 11:03:31 10° S daylight
02 Dec - 23:46:56 10° SE 23:48:48 12° ESE 23:50:39 10° E night (unlit)
03 Dec - 01:25:40 10° SW 01:30:18 71° WNW 01:34:40 10° NNE night (unlit)
03 Dec - 03:11:52 10° NW 03:13:03 11° NW 03:14:14 10° NNW night (unlit)
03 Dec - 08:24:47 10° NNE 08:26:57 13° NE 08:29:08 10° ENE daylight
03 Dec - 10:05:10 10° NNW 10:09:31 86° WSW 10:14:05 10° SSE daylight
04 Dec - 00:35:57 10° SSW 00:40:29 53° ESE 00:44:45 10° NE night (unlit)
04 Dec - 02:19:27 10° W 02:22:44 20° NW 02:25:56 10° N night (unlit)
04 Dec - 09:15:28 10° NNW 09:19:37 44° NE 09:23:57 10° SE daylight
04 Dec - 10:58:09 10° WNW 11:01:19 20° WSW 11:04:37 10° SSW daylight
04 Dec - 23:47:02 10° SSE 23:50:47 24° ESE 23:54:23 10° ENE night (unlit)
05 Dec - 01:28:23 10° WSW 01:32:37 36° NW 01:36:40 10° NNE night (unlit)
05 Dec - 08:26:05 10° N 08:29:33 23° NE 08:33:06 10° E daylight
05 Dec - 10:07:33 10° NW 10:11:41 42° WSW 10:16:01 10° S daylight
05 Dec - 22:59:56 10° ESE 23:01:15 11° ESE 23:02:31 10° E night (unlit)
06 Dec - 00:38:03 10° SW 00:42:41 77° WNW 00:47:02 10° NNE night (unlit)
06 Dec - 02:23:50 10° WNW 02:25:22 12° NW 02:26:54 10° NNW night (unlit)
06 Dec - 07:37:20 10° NNE 07:39:17 13° NE 07:41:15 10° ENE visible
06 Dec - 09:17:32 10° NNW 09:21:54 87° ENE 09:26:30 10° SSE daylight
06 Dec - 23:48:25 10° S 23:52:52 48° ESE 23:57:05 10° NE night (unlit)
07 Dec - 01:31:40 10° W 01:35:05 21° NW 01:38:22 10° N night (unlit)
07 Dec - 08:27:52 10° NNW 08:31:58 41° NE 08:36:17 10° SE daylight
07 Dec - 10:10:23 10° WNW 10:13:44 21° WSW 10:17:14 10° SSW daylight
07 Dec - 22:59:37 10° SSE 23:03:11 22° ESE 23:06:38 10° ENE night (unlit)
08 Dec - 00:40:42 10° WSW 00:44:59 39° NW 00:49:04 10° NNE night (unlit)
08 Dec - 07:38:31 10° N 07:41:53 21° NE 07:45:21 10° E visible
08 Dec - 09:19:52 10° NW 09:24:04 46° WSW 09:28:29 10° S daylight
08 Dec - 23:50:27 10° SSW 23:55:03 83° WNW 23:59:25 10° NNE night (unlit)
09 Dec - 01:35:52 10° WNW 01:37:42 12° NW 01:39:30 10° NNW night (unlit)
09 Dec - 06:49:54 10° NNE 06:51:36 12° NE 06:53:19 10° ENE visible
09 Dec - 08:29:54 10° NNW 08:34:16 80° ENE 08:38:53 10° SSE daylight
09 Dec - 10:14:47 10° W 10:15:41 11° WSW 10:16:35 10° WSW daylight
09 Dec - 23:00:53 10° S 23:05:16 44° ESE 23:09:25 10° NE night (unlit)
